Date String (YYYY-MM-DD hh:mm:ss) UTC,Instrument flags,absolute air pressure of the measurement (hPa),sample flow rate (lpm),inlet stack bypass flow (lpm),air temperature of the measurement (°C),ambient temperature measured by the external sensor (°C),aerosol sample conditioner tube jacket temperature (°C),OPC LED temperature (°C),internal box temperature (°C),relative humidity of the measurement (%),span deviation,mass concentration of particles derived from Lorenz-Mie calculation of OPC scattering (μg/m³),mass concentration of particles derived from Lorenz-Mie calculation of OPC scattering (μg/m³),mass concentration of particles derived from Lorenz-Mie calculation of OPC scattering (μg/m³)
DateTimeUTC,F1_M11,P_M11,Q1_M11,Q2_M11,T1_M11,T2_M11,T3_M11,T4_M11,T5_M11,U1_M11,ZSPAN_M11,X0_M11,X2_M11,X1_M11
2024-05-21 03:00:00,SystemResetWarning,0823.1,5.00,000.00,030.7,029.9,000.0,039.2,032.4,019.4,0000.0,0010.74,0003.75,0002.86
2024-05-21 03:01:00,SystemResetWarning,0822.8,5.00,000.00,030.7,029.8,000.0,039.2,032.4,019.4,0000.0,0010.74,0003.75,0002.87
2024-05-21 03:02:00,SystemResetWarning,0823.0,5.01,000.00,030.7,029.8,000.0,039.2,032.3,019.4,0000.0,0011.01,0003.73,0002.90
2024-05-21 03:03:00,SystemResetWarning,0823.0,5.01,000.00,030.7,029.8,000.0,039.2,032.3,019.4,0000.0,0010.85,0003.71,0002.92
2024-05-21 03:04:00,SystemResetWarning,0822.8,5.00,000.00,030.7,029.8,000.0,039.2,032.3,019.4,0000.0,0010.70,0003.69,0002.94
2024-05-21 03:05:00,SystemResetWarning,0823.0,4.99,000.00,030.7,029.8,000.0,039.2,032.3,019.4,0000.0,0010.46,0003.69,0002.96
2024-05-21 03:06:00,SystemResetWarning,0822.9,5.00,000.00,030.7,029.8,000.0,039.2,032.3,019.3,0000.0,0009.03,0003.70,0002.99
2024-05-21 03:07:00,SystemResetWarning,0822.8,5.00,000.00,030.6,029.8,000.0,039.2,032.3,019.4,0000.0,0008.96,0003.71,0003.01
2024-05-21 03:08:00,SystemResetWarning,0822.8,5.02,000.00,030.6,029.8,000.0,039.2,032.3,019.4,0000.0,0009.57,0003.72,0003.02
2024-05-21 03:09:00,SystemResetWarning,0822.9,5.00,000.00,030.6,029.7,000.0,039.2,032.3,019.4,0000.0,0009.13,0003.73,0003.02
2024-05-21 03:10:00,SystemResetWarning,0822.9,4.99,000.00,030.6,029.7,000.0,039.2,032.3,019.4,0000.0,0008.94,0003.73,0003.03
2024-05-21 03:11:00,SystemResetWarning,0823.0,5.00,000.00,030.6,029.7,000.0,039.2,032.3,019.5,0000.0,0009.35,0003.76,0003.04
2024-05-21 03:12:00,SystemResetWarning,0823.0,5.02,000.00,030.6,029.7,000.0,039.2,032.3,019.5,0000.0,0009.97,0003.78,0003.06
2024-05-21 03:13:00,SystemResetWarning,0822.8,5.00,000.00,030.6,029.7,000.0,039.2,032.2,019.5,0000.0,0010.29,0003.78,0003.08
2024-05-21 03:14:00,SystemResetWarning,0823.0,5.00,000.00,030.6,029.7,000.0,039.1,032.2,019.5,0000.0,0010.55,0003.83,0003.10
2024-05-21 03:15:00,SystemResetWarning,0823.1,5.00,000.00,030.5,029.7,000.0,039.1,032.2,019.5,0000.0,0010.65,0003.86,0003.10
2024-05-21 03:16:00,SystemResetWarning,0822.9,5.00,000.00,030.5,029.7,000.0,039.1,032.2,019.5,0000.0,0010.48,0003.85,0003.11
2024-05-21 03:17:00,SystemResetWarning,0823.0,5.00,000.00,030.5,029.7,000.0,039.1,032.2,019.5,0000.0,0011.03,0003.90,0003.12
2024-05-21 03:18:00,SystemResetWarning,0823.0,5.00,000.00,030.5,029.7,000.0,039.1,032.2,019.5,0000.0,0011.36,0003.90,0003.12
2024-05-21 03:19:00,SystemResetWarning,0823.1,5.00,000.00,030.5,029.7,000.0,039.1,032.2,019.5,0000.0,0010.93,0003.90,0003.12
2024-05-21 03:20:00,SystemResetWarning,0823.2,5.00,000.00,030.5,029.7,000.0,039.1,032.2,019.6,0000.0,0010.35,0003.89,0003.12
2024-05-21 03:21:00,SystemResetWarning,0823.3,5.00,000.00,030.5,029.7,000.0,039.1,032.2,019.6,0000.0,0010.30,0003.86,0003.12
2024-05-21 03:22:00,SystemResetWarning,0823.4,5.00,000.00,030.5,029.6,000.0,039.1,032.2,019.5,0000.0,0010.04,0003.86,0003.12
2024-05-21 03:23:00,SystemResetWarning,0823.5,5.00,000.00,030.5,029.6,000.0,039.1,032.2,019.4,0000.0,0010.11,0003.86,0003.13
2024-05-21 03:24:00,SystemResetWarning,0823.6,5.01,000.00,030.5,029.6,000.0,039.1,032.2,019.3,0000.0,0009.70,0003.87,0003.12
2024-05-21 03:25:00,SystemResetWarning,0823.7,5.00,000.00,030.5,029.6,000.0,039.0,032.2,019.3,0000.0,0010.23,0003.85,0003.09
2024-05-21 03:26:00,SystemResetWarning,0823.8,5.00,000.00,030.5,029.6,000.0,039.0,032.2,019.3,0000.0,0010.07,0003.79,0003.06
2024-05-21 03:27:00,SystemResetWarning,0823.8,5.00,000.00,030.5,029.6,000.0,039.0,032.2,019.3,0000.0,0010.82,0003.80,0003.04
2024-05-21 03:28:00,SystemResetWarning,0823.8,4.99,000.00,030.5,029.6,000.0,039.0,032.2,019.3,0000.0,0010.37,0003.77,0003.00
2024-05-21 03:29:00,SystemResetWarning,0823.9,5.00,000.00,030.5,029.6,000.0,039.0,032.2,019.0,0000.0,0010.05,0003.72,0002.95
2024-05-21 03:30:00,SystemResetWarning,0824.0,5.00,000.00,030.5,029.6,000.0,039.0,032.1,019.0,0000.0,0010.18,0003.68,0002.89
2024-05-21 03:31:00,SystemResetWarning,0823.9,4.99,000.00,030.5,029.6,000.0,039.0,032.2,018.6,0000.0,0010.28,0003.60,0002.81
2024-05-21 03:32:00,SystemResetWarning,0824.0,5.00,000.00,030.5,029.6,000.0,039.0,032.1,017.7,0000.0,0010.49,0003.55,0002.68
2024-05-21 03:33:00,SystemResetWarning,0824.0,5.00,000.00,030.4,029.6,000.0,039.0,032.1,017.5,0000.0,0010.35,0003.45,0002.52
2024-05-21 03:34:00,SystemResetWarning,0824.2,4.98,000.00,030.4,029.6,000.0,039.0,032.1,017.5,0000.0,0009.69,0003.32,0002.34
2024-05-21 03:35:00,SystemResetWarning,0824.2,4.99,000.00,030.4,029.6,000.0,039.0,032.1,017.4,0000.0,0009.74,0003.23,0002.17
2024-05-21 03:36:00,SystemResetWarning,0824.3,5.00,000.00,030.4,029.6,000.0,039.0,032.1,017.4,0000.0,0009.51,0003.09,0002.03
2024-05-21 03:37:00,SystemResetWarning,0824.3,5.00,000.00,030.4,029.6,000.0,039.0,032.1,017.4,0000.0,0009.45,0002.95,0001.88
2024-05-21 03:38:00,SystemResetWarning,0824.4,5.00,000.00,030.4,029.5,000.0,038.9,032.1,017.2,0000.0,0008.56,0002.72,0001.71
2024-05-21 03:39:00,SystemResetWarning,0824.4,5.00,000.00,030.4,029.5,000.0,038.9,032.1,017.2,0000.0,0008.37,0002.48,0001.54
2024-05-21 03:40:00,SystemResetWarning,0824.5,5.00,000.00,030.4,029.5,000.0,038.9,032.1,017.1,0000.0,0008.99,0002.29,0001.39
2024-05-21 03:41:00,SystemResetWarning,0824.5,5.00,000.00,030.4,029.5,000.0,038.9,032.1,017.0,0000.0,0009.66,0002.12,0001.27
2024-05-21 03:42:00,SystemResetWarning,0824.5,5.00,000.00,030.4,029.5,000.0,038.9,032.1,016.9,0000.0,0009.89,0002.00,0001.13
2024-05-21 03:43:00,SystemResetWarning,0824.5,5.00,000.00,030.4,029.5,000.0,038.9,032.1,016.7,0000.0,0009.84,0001.87,0001.05
2024-05-21 03:44:00,SystemResetWarning,0824.5,5.01,000.00,030.4,029.5,000.0,038.9,032.1,016.7,0000.0,0009.75,0001.79,0001.00
2024-05-21 03:45:00,SystemResetWarning,0824.4,5.01,000.00,030.4,029.5,000.0,038.9,032.1,016.8,0000.0,0009.68,0001.76,0000.96
2024-05-21 03:46:00,SystemResetWarning,0824.4,5.00,000.00,030.4,029.5,000.0,038.9,032.0,016.6,0000.0,0009.37,0001.66,0000.92
2024-05-21 03:47:00,SystemResetWarning,0824.3,4.99,000.00,030.4,029.5,000.0,038.9,032.0,016.6,0000.0,0008.47,0001.64,0000.88
2024-05-21 03:48:00,SystemResetWarning,0824.3,4.99,000.00,030.3,029.5,000.0,038.9,032.0,016.5,0000.0,0008.41,0001.59,0000.84
2024-05-21 03:49:00,SystemResetWarning,0824.2,5.00,000.00,030.3,029.5,000.0,038.9,032.0,016.4,0000.0,0008.33,0001.56,0000.81
2024-05-21 03:50:00,SystemResetWarning,0824.1,5.00,000.00,030.3,029.5,000.0,038.9,032.0,016.4,0000.0,0008.24,0001.53,0000.77
2024-05-21 03:51:00,SystemResetWarning,0824.1,5.00,000.00,030.3,029.4,000.0,038.9,032.0,016.4,0000.0,0007.22,0001.49,0000.73
2024-05-21 03:52:00,SystemResetWarning,0824.2,5.00,000.00,030.3,029.4,000.0,038.9,032.0,016.4,0000.0,0005.09,0001.43,0000.71
2024-05-21 03:53:00,SystemResetWarning,0824.3,5.00,000.00,030.3,029.4,000.0,038.8,032.0,016.5,0000.0,0003.75,0001.37,0000.68
2024-05-21 03:54:00,SystemResetWarning,0824.3,5.00,000.00,030.3,029.4,000.0,038.8,031.9,016.5,0000.0,0002.97,0001.34,0000.66
2024-05-21 03:55:00,SystemResetWarning,0824.2,5.00,000.00,030.2,029.4,000.0,038.8,031.9,016.7,0000.0,0003.15,0001.28,0000.65
2024-05-21 03:56:00,SystemResetWarning,0824.2,4.99,000.00,030.2,029.4,000.0,038.8,031.9,016.7,0000.0,0003.69,0001.22,0000.61
2024-05-21 03:57:00,SystemResetWarning,0824.3,5.00,000.00,030.2,029.3,000.0,038.8,031.9,016.7,0000.0,0003.46,0001.16,0000.58
2024-05-21 03:58:00,SystemResetWarning,0824.3,5.00,000.00,030.2,029.3,000.0,038.8,031.9,016.7,0000.0,0002.85,0001.08,0000.56
2024-05-21 03:59:00,SystemResetWarning,0824.3,5.00,000.00,030.2,029.3,000.0,038.8,031.9,016.7,0000.0,0003.55,0001.08,0000.55
